STARLINK-11162 [DTC] (60123 NORAD) Tracking and Keplerian Element Data

This shows tracking and keplerian element data for the satellite.

Feedback or suggestion? Click here.




ElementValue
Catalog60123
NameSTARLINK-11162 [DTC]
Epoch Orbit1740
Epoch Day286.55397636
Epoch Year2024
RAAN230.5301
Inclination53.1557
Eccentricity0.0001741
Argument of Perigee107.2516
Mean Anonmoly252.8692
Mean Motion15.69664828
Decay Rate0.00037269
L11 60123U 24118L 24286.55397636 .00037269 00000+0 31167-3 0 9991
L22 60123 53.1557 230.5301 0001741 107.2516 252.8692 15.69664828 17400



Live tracking and technical data element details for STARLINK-11162 [DTC] (NORAD 60123). STARLINK-11162 [DTC] can be tracked NOW for your location showing map with azimuth and elevation plus other details from your city location.







IsCatalogInMostPopularTable: catalog: 60123, numindb: 6
Update: records affected: 1



GetName: 60123 STARLINK-11162 [DTC]

Hit Count: updated at: Thu, 23 Jan 2025 15:05:47 GMT